map of TOR home
TOR - Airport
Location
City:  Torrington, Wyoming, United States
Name:Torrington Municipal Airport
ICAO:KTOR
IATA:TOR
FAA LID:TOR

Details
Type:Airport (Airfield)
Use:Public/Civil
Latitude:4203'52"N (42.064528)
Longitude:10409'10"W (-104.152693)
Datum:WGS 1984
Elevation:4206 ft (1282 m)
Variation:7.84E (WMM2015 magnetic declination)
-0.10 annual change
Runways:2
Longest:5703 × 75 ft (1738 × 23 m), paved

Time
Time Zone:UTC-7 (DST-6)
Local Time:

Weather
METAR:KTOR 181753Z AUTO 29014KT 10SM CLR 11/M03 A2993 RMK AO2 SLP129 T01111033 10111 21033 58008

Related Locations
Nearby:
Farthest:RRG: 10731 mi / 17269 km
Plaine Corail [Sir Gatan Duval Airport (Plaine Corail Airport)], Rodrigues Island, MU

Find:

   beyond  
but within

Other Information
Maps:
NOTAMs:
Links:
Sources:

  
  • flag of United States
  • flag of Wyoming
  

Sectional Chart

Flight Planning
at skyvector.com

Satellite Image

Google Maps Satellite view

 

Copyright © 2004-2018 Karl L. Swartz. All rights reserved.
The Great Circle Mapper name and logo are trademarks of the Great Circle Mapper.
All other trademarks mentioned herein belong to their respective owners.
Please see credits for attibutions and further copyright information.

  Follow gcmap on Facebook Follow gcmap on Twitter Follow gcmap on Google+ GCmap on LinkedIn

hCard Microformat

Geo Microformat